{"data":{"norad_id":49101,"intl_designator":"2021-075AC","name":"ONEWEB-0315","alt_names":[],"object_type":"PAYLOAD","status":"ACTIVE","operator":null,"country":"UK","launch_date":"2021-08-21","launch_site_code":"TYMSC","launch_vehicle":null,"mission":null,"orbit_class":"UNKNOWN","rcs_meters":null,"size_class":null,"mass_kg":null,"dimensions":null,"purposes":["comms"],"wikipedia_slug":null,"has_3d_model":false,"image_url":null,"decayed_at":null,"tle_current":{"epoch":"2026-09-19T03:11:05.549568Z","epoch_age_seconds":140104,"freshness":"FRESH","line1":"1 49101U 21075AC  26262.13270312 -.00000137  00000+0 -41720-3 0  9996","line2":"2 49101  87.8983 331.9972 0002158 106.6831 253.4535 13.12442235247495","mean_motion":13.12442235,"eccentricity":0.0002158,"inclination_deg":87.8983,"raan_deg":331.9972,"arg_perigee_deg":106.6831,"mean_anomaly_deg":253.4535,"bstar":-0.0004172,"rev_number":24749,"period_min":109.71911460926,"perigee_km":1212.0879170699,"apogee_km":1215.3645652448,"semimajor_km":7591.8632411573,"source":"CELESTRAK","updated_at":"2026-09-20T09:00:44.658055Z"}}}